Regional Weather Roundup
Issued by NWS

Home | Current Version | Previous Version | Text Only | Print | Product List | Glossary Off
Versions: 1 2 3 4 5 6 7 8 9 10 11 12 13 14 15 16 17 18 19 20 21 22 23 24 25 26 27 28 29 30 31 32 33 34 35 36 37 38 39 40 41 42 43 44 45 46 47 48 49 50

000
ASUS45 KABQ 232310
RWRNM
NEW MEXICO REGIONAL WEATHER ROUNDUP
NATIONAL WEATHER SERVICE ALBUQUERQUE NM
500 PM MDT TUE MAY 23 2017

NOTE: "FAIR" MEANS FEW OR NO CLOUDS BELOW 12,000 FEET AGL WITH NO
       SIGNIFICANT WEATHER OR OBSTRUCTIONS TO VISION.

      THIS PRODUCT IS RELEASED AS TWO VERSIONS.  ONE VERSION NEAR
      THE TOP OF THE HOUR CONTAINING PRELIMINARY DATA FROM ALBUQUERQUE
      AND OTHER STATIONS.  A FINAL VERSION WITH ADDITIONAL DATA IS
      ISSUED ABOUT 10 MINUTES AFTER THE HOUR.

NMZ501-503-504-510>518-240000-
NORTHWEST PLATEAU/NORTHCENTRAL MOUNTAINS

CITY           SKY/WX    TMP DP  RH WIND       PRES   REMARKS
FARMINGTON     FAIR      74  35  24 W26G36    30.05F
LOS ALAMOS     FAIR      64  33  30 SE10      30.13S
SANTA FE       FAIR      68  33  27 W6        30.07F
TAOS           FAIR      66  25  20 N10       30.11F
ANGEL FIRE     FAIR      57  26  29 SW10G17   30.17F

$$
NMZ402-403-502-505>509-240000-
WESTCENTRAL MOUNTAINS/SOUTHWEST MOUNTAINS

CITY           SKY/WX    TMP DP  RH WIND       PRES   REMARKS
GALLUP         FAIR      74  24  15 NW17G24   30.16S
GRANTS         FAIR      76  19  12 NW18G29   30.12F
SILVER CITY    FAIR      86  21   9 W24       30.01F

$$
NMZ407-409-411-412-240000-
SOUTHERN DESERTS

CITY           SKY/WX    TMP DP  RH WIND       PRES   REMARKS
DEMING         FAIR      92  15   6 W24G31    29.92F
LAS CRUCES     FAIR      90  25   9 E13       29.94F
HOLLOMAN AFB   FAIR      81  38  21 S9        30.00S
ALAMOGORDO     FAIR      81  36  19 SW7       29.98F
T OR C         FAIR      85  30  13 E8        29.96F

$$
NMZ519>523-240000-
CENTRAL VALLEYS/CENTRAL HIGHLANDS

CITY           SKY/WX    TMP DP  RH WIND       PRES   REMARKS
ALBUQUERQUE    FAIR      78  13   8 NW22G31   30.02F
DOUBLE EAGLE   MOSUNNY   75  19  12 NW18G29   30.06S
MORIARTY ARPT  FAIR      69  36  29 SE7       30.10F
CLINES CORNERS FAIR      65  32  29 CALM      30.13F
BELEN          FAIR      82  14   8 NW17G30   30.02S
SOCORRO        FAIR      79  32  18 SE9       30.00F

$$
NMZ524>526-539-540-240000-
SOUTHCENTRAL MOUNTAINS

CITY           SKY/WX    TMP DP  RH WIND       PRES   REMARKS
RUIDOSO        FAIR      63  34  34 SE20      30.16F

$$
NMZ527>531-240000-
NORTHEAST HIGHLANDS/NORTHEAST PLAINS

CITY           SKY/WX    TMP DP  RH WIND       PRES   REMARKS
LAS VEGAS      PTSUNNY   56  36  47 SE12      30.14F
RATON          FAIR      58  30  34 NE17G26   30.10S
CLAYTON        FAIR      61  31  32 N15G26    30.09F

$$
NMZ532>537-240000-
EASTCENTRAL PLAINS

CITY           SKY/WX    TMP DP  RH WIND       PRES   REMARKS
SANTA ROSA     FAIR      65  35  32 CALM      30.07F
TUCUMCARI      PTSUNNY   67  33  28 NE6       30.05F
CANNON AFB     FAIR      66  34  31 NW9       30.09F
CLOVIS AIRPORT PTSUNNY   66  34  30 N9        30.09S

$$
NMZ028-029-538-240000-
SOUTHEAST PLAINS

CITY           SKY/WX    TMP DP  RH WIND       PRES   REMARKS
ROSWELL        FAIR      70  31  23 NE9       30.07F
ARTESIA        FAIR      70  36  28 NW7G14    30.08F
CARLSBAD       FAIR      70  41  34 NE3       30.06F
HOBBS          SUNNY     66  32  28 N7G21     30.10F


$$




USA.gov is the U.S. government's official web portal to all federal, state and local government web resources and services.